SCP
0 0 0 0 0 0 0 0 0 0 0 0 0 0 0 0 0 0 0 0 0 0 0 0 0 0 0 0 0 0 0 0 0 0 0 0 0 0 0 0 0 0 0 0 0 0 0 0 0 0 0 0 0 0
0 0 0 0 0 0 0 0 0 0 0 0 0 0 0 0 0 0 0 0 0 0 0 0 0 0 0 0 0 0 0 0 0 0 0 0 0 0 0 0 0 0 0 0 0 0 0 0 0 0 0 0 0 0
0 0 0 0 0 0 0 0 0 0 0 0 0 0 0 0 0 0 0 0 0 0 0 0 0 0 0 0 0 0 0 0 0 0 0 0 0 0 0 0 0 0 0 0 0 0 0 -0 -0 -0 -0 -0 -0 0
0 0 0 0 0 0 0 0 0 0 0 0 0 0 0 0 0 0 0 0 0 0 0 0 0 0 0 0 0 0 0 0 0 0 0 0 0 0 0 0 0 0 0 0 0 0 0 0 0 0 0 0 0 -0
0 0 0 0 0 0 0 0 0 -0 0 0 0 0 0 0 0 0 0 0 0 0 0 0 0 0 0 0 0 0 0 0 0 0 0 0 0 0 0 0 0 0 0 0 0 0 0 0 0 0 0 0 0 0
0 0 0 0 0 0 0 0 0 -0 0 0 0 0 0 0 0 0 0 0 0 0 0 0 0 0 0 0 0 0 0 0 0 0 0 0 0 0 0 0 0 0 0 0 0 0 0 0 0 0 0 0 0 0
-0 -0 -0 -0 0 0 0 0 0 0 0 0 0 0 0 0 0 0 0 0 0 0 0 0 0 0 0 0 0 0 0 0 0 0 0 0 0 0 0 -0 -0 0 0 0 0 0 0 0 0 0 0 0 0 0
-0 -0 -0 -0 0 0 -0 -0 0 -0 -0 -0 0 0 0 0 0 0 0 0 0 0 0 0 0 0 0 0 0 0 0 0 0 0 0 0 0 0 0 -0 -0 0 0 0 0 0 0 0 0 0 0 0 0 0
-0 -0 -0 -0 0 -0 -0 0 -0 -0 -0 -0 0 0 0 0 0 0 0 0 0 0 0 0 0 0 0 0 0 0 0 0 0 0 0 0 0 0 0 0 0 -0 0 0 0 0 0 0 0 0 0 0 0 0
-0 -0 -0 -0 -0 -0 0 -0 -0 -0 -0 0 0 0 0 0 0 0 0 -0 0 0 0 0 0 0 0 0 0 0 0 0 0 0 0 0 0 0 -0 0 -0 0 0 0 0 0 0 0 0 0 0 0 0 0
-0 -0 -0 -0 -0 -0 -0 -0 -0 -0 0 0 0 0 0 0 0 0 0 0 0 0 0 0 0 0 0 0 0 0 0 0 0 -0 0 0 0 0 0 -0 0 0 0 0 0 0 0 -0 0 -0 0 -0 -0 -0
-0 -0 0 -0 -0 -0 -0 -0 -0 0 0 0 0 0 0 0 0 0 0 0 0 0 0 0 0 0 0 0 0 0 0 0 -0 0 0 0 -0 -0 -0 -0 -0 0 0 0 0 0 -0 0 0 0 -0 -0 -0 0
-0 0 0 0 -0 -0 0 -0 0 0 0 0 0 0 0 0 -0 -0 0 -0 -0 0 0 0 0 0 0 0 0 0 0 0 0 0 0 0 0 0 0 -0 -0 -0 0 0 -0 -0 -0 -0 -0 0 0 0 -0 -0
-0 0 0 0 0 0 0 0 0 0 0 0 -0 -0 -0 -0 -0 0 0 -0 0 0 0 0 0 0 0 0 0 0 0 0 0 0 0 0 0 0 0 -0 -0 -0 -0 -0 -0 -0 0 -0 -0 -0 -0 -0 -0 0
-0 0 0 0 0 0 0 0 0 0 0 0 0 0 -0 -0 -0 -0 -0 -0 0 0 0 0 -0 0 0 0 0 0 0 0 0 0 0 0 0 0 0 -0 -0 -0 -0 -0 0 -0 0 0 0 -0 -0 -0 -0 -0
0 0 -0 0 0 0 0 0 0 0 0 0 0 0 0 0 0 0 0 -0 0 0 0 0 0 -0 0 0 0 0 0 0 0 0 0 0 0 0 0 -0 -0 -0 -0 -0 0 0 0 0 -0 -0 -0 -0 0 0
0 0 0 0 0 0 0 0 0 0 0 0 0 0 0 0 0 0 0 0 0 0 0 0 0 0 0 0 0 0 0 0 0 0 0 0 0 0 0 0 0 0 0 0 0 -0 0 -0 -0 -0 -0 -0 -0 -0
0 0 0 0 0 0 0 0 0 0 0 0 0 0 0 0 0 0 0 0 0 0 0 0 0 0 0 0 0 0 0 0 0 0 0 0 0 -0 0 0 0 0 0 0 0 0 0 0 -0 -0 -0 -0 -0 -0
0 0 -0 0 0 0 0 -0 0 0 0 0 0 0 0 0 0 0 0 0 0 0 0 0 0 0 0 0 0 0 0 0 0 0 0 0 0 0 0 0 0 0 0 0 0 0 0 0 0 0 0 0 0 0
0 0 -0 -0 0 0 0 0 0 -0 0 0 0 0 0 0 0 0 0 0 0 0 0 0 0 0 0 0 0 0 0 0 0 0 0 0 0 0 0 0 0 0 0 0 0 0 0 0 -0 -0 -0 0 0 0
0 0 -0 -0 0 0 0 0 0 0 0 0 0 0 0 0 0 0 0 0 0 0 0 0 0 0 0 0 0 0 0 0 0 0 0 0 0 0 0 0 0 0 0 0 0 0 0 0 -0 -0 0 0 0 0
0 -0 0 0 0 0 0 0 0 0 0 0 0 0 0 0 0 0 0 0 0 0 0 0 0 0 0 0 0 0 0 0 0 0 0 0 0 0 0 0 0 0 0 0 0 0 0 0 0 0 0 0 0 0
0 0 -0 0 0 0 0 0 0 0 0 0 0 0 0 0 0 0 0 0 0 0 0 0 0 0 0 0 0 0 0 0 0 0 0 0 0 0 0 0 -0 -0 -0 -0 0 0 0 0 0 0 0 0 0 0
0 -0 0 0 0 0 0 0 0 0 0 0 0 0 0 0 0 0 0 0 0 0 0 0 0 0 0 0 0 0 0 0 0 0 0 0 0 0 0 0 0 0 -0 -0 0 0 0 0 0 0 0 0 0 0
0 0 0 0 0 0 0 0 0 0 0 0 0 0 0 0 0 0 0 0 0 0 0 0 0 0 0 0 0 0 0 0 0 0 0 0 0 0 0 0 -0 0 0 -0 0 0 0 0 0 0 0 0 0 0
0 0 0 0 0 0 0 0 0 0 0 0 0 0 0 0 0 0 0 0 0 0 0 0 0 0 0 0 0 0 0 0 0 0 0 0 0 0 0 -0 -0 -0 0 -0 0 0 0 0 0 0 0 0 0 0
0 0 0 -0 -0 0 0 0 0 0 0 0 0 -0 0 0 0 0 0 0 0 0 0 0 0 0 0 0 0 0 0 0 0 0 0 0 0 0 0 -0 -0 -0 -0 -0 0 0 0 0 0 0 0 0 0 0
0 0 0 0 -0 0 0 0 0 0 0 0 0 0 0 0 0 0 0 0 0 0 0 0 0 0 0 0 0 0 0 0 0 0 0 0 0 0 0 0 0 0 0 0 0 0 0 0 0 0 0 0 0 0
0 0 0 0 0 0 0 0 0 0 0 0 0 0 0 0 0 0 0 0 -0 0 0 0 0 0 0 0 0 0 0 0 0 0 0 0 0 0 0 0 0 0 0 0 0 0 0 0 0 0 0 0 0 0
0 0 0 0 0 0 0 0 0 0 0 0 0 0 0 0 0 0 0 0 0 0 0 0 0 0 0 0 0 0 0 0 0 0 0 0 0 0 0 0 0 0 0 0 0 0 0 0 0 0 0 0 0 0
0 0 0 0 0 0 0 0 0 0 0 0 0 0 0 0 0 0 0 0 0 0 0 0 0 0 0 0 0 0 0 0 0 0 0 0 0 0 0 0 0 0 0 0 0 0 0 0 0 0 0 0 0 0
0 0 0 0 0 0 0 0 0 0 0 0 0 0 0 0 0 0 0 0 0 0 0 0 0 0 0 0 0 0 0 0 0 0 0 0 0 0 0 0 0 0 0 0 0 0 0 0 0 0 0 0 0 0
0 0 0 0 0 0 0 0 0 0 0 0 0 0 0 0 0 0 0 0 0 0 0 0 0 0 0 0 0 0 0 0 0 0 0 0 0 0 0 0 0 0 0 0 0 0 0 0 0 0 0 0 0 0
Wind_Speed_500mb
18 18 21 23 23 21 23 25 23 28 27 31 33 26 21 17 19 25 27 21 15 4 4 9 9 10 10 8 7 7 8 3 5 4 5 6 6 5 4 7 6 6 6 3 11 12 15 7 11 4 4 7 18 21
22 21 25 26 28 27 25 21 24 31 37 31 36 38 30 22 22 22 25 23 18 10 4 12 16 17 15 8 10 10 5 8 13 6 0 2 2 3 4 6 3 6 8 5 9 7 5 4 13 22 18 26 32 36
25 26 30 30 31 31 31 31 35 38 41 42 38 37 38 29 22 19 22 28 20 11 20 29 23 22 24 26 23 10 7 9 11 8 7 4 7 6 4 9 6 8 6 10 15 8 6 8 14 28 31 36 44 44
27 32 32 36 38 41 42 41 44 44 48 46 46 44 41 34 29 22 21 22 24 7 2 10 13 16 27 30 32 35 24 11 9 12 6 5 5 12 6 7 6 15 3 18 26 33 38 56 59 63 49 50 55 48
27 33 37 41 45 50 46 35 38 41 47 51 50 46 46 44 31 22 22 23 21 13 8 12 16 17 24 24 24 24 33 38 20 3 3 5 4 2 7 2 24 34 24 15 26 54 44 56 78 64 60 63 70 59
27 34 40 47 48 40 42 36 34 42 44 54 50 49 49 45 36 24 8 27 30 24 4 5 7 12 15 21 28 30 28 27 23 11 7 12 16 14 7 10 39 38 45 63 42 80 75 83 97 77 69 73 78 74
27 36 43 44 44 36 31 26 22 27 37 52 50 48 47 46 46 18 5 5 37 22 6 6 7 4 5 9 19 23 31 23 26 15 13 16 19 20 6 30 67 72 63 68 68 72 67 81 60 85 60 61 62 64
24 34 41 38 32 28 18 14 7 29 35 54 50 47 51 46 43 20 8 9 30 18 6 0 7 8 7 7 9 15 14 21 19 13 7 5 5 14 11 34 63 75 67 63 68 65 78 83 76 81 69 67 68 75
21 29 33 32 24 22 15 15 28 38 50 53 47 48 49 35 18 26 11 24 40 15 11 6 4 6 3 4 5 5 3 1 4 4 5 12 6 12 21 20 45 51 47 61 68 56 48 59 60 58 61 59 59 65
16 23 26 24 15 17 16 26 41 51 54 61 65 19 8 16 18 22 9 1 17 14 9 5 9 5 5 5 3 4 3 5 4 9 7 6 12 38 40 51 59 52 47 47 45 40 35 34 42 47 50 49 51 55
11 15 21 16 15 18 25 33 44 54 67 43 10 8 22 32 18 10 7 7 6 3 11 11 27 5 10 5 6 11 6 4 5 7 6 5 6 5 3 32 34 31 29 23 28 41 32 29 35 36 31 28 45 46
12 7 8 10 22 22 23 30 40 54 20 12 22 34 31 11 6 4 5 3 6 7 11 8 13 20 11 14 5 8 6 7 10 8 4 6 7 22 21 20 19 25 31 29 23 23 25 24 29 31 35 41 42 41
13 13 3 2 14 25 47 50 48 24 36 35 9 10 8 6 4 11 11 6 5 8 16 16 5 11 11 16 5 6 9 10 1 2 7 8 6 6 10 19 27 27 32 34 30 25 24 24 25 31 32 31 30 31
14 15 18 15 10 7 10 35 41 35 29 6 9 7 8 6 9 9 7 8 15 10 22 18 8 5 10 8 5 6 5 3 4 5 10 5 1 11 17 21 25 35 39 33 25 23 22 24 26 27 28 31 34 33
16 16 18 21 21 22 16 20 32 44 8 8 7 8 11 13 15 10 23 12 11 14 16 5 0 6 3 3 5 1 4 8 10 8 5 6 5 11 19 24 26 31 30 25 18 18 18 20 23 24 24 26 30 35
13 16 18 18 25 28 29 23 21 21 8 8 11 6 10 2 8 13 20 33 26 24 18 9 5 7 9 6 8 13 6 11 8 5 3 4 10 12 18 21 21 22 18 14 16 18 18 17 18 24 30 22 23 29
20 23 14 16 18 25 28 41 28 13 12 12 11 31 22 10 19 19 33 39 24 17 5 5 9 11 7 6 8 8 9 7 7 7 9 11 12 12 19 17 15 15 15 15 18 15 17 16 15 19 21 25 24 24
23 18 19 14 11 18 26 18 16 19 18 16 9 29 33 34 24 19 19 22 24 18 10 7 4 8 7 7 7 5 9 11 14 12 5 3 2 11 12 10 12 17 18 16 17 19 20 22 22 23 25 28 26 23
15 16 18 26 20 15 8 8 8 6 13 8 24 25 22 19 33 37 33 31 36 20 12 8 8 7 7 6 6 15 19 20 17 12 5 2 4 10 15 8 11 13 15 18 20 23 25 25 26 25 25 27 29 26
19 17 20 18 19 4 5 6 7 9 5 11 21 30 38 35 48 49 50 44 42 18 12 9 9 11 12 18 22 22 28 29 22 18 7 6 2 1 3 6 9 12 12 16 20 22 25 30 35 36 29 28 28 31
14 8 8 14 21 20 9 6 9 11 10 10 18 21 14 32 41 40 31 38 29 14 8 32 38 34 29 20 15 20 16 17 18 16 21 18 12 5 2 3 6 9 13 17 22 22 24 26 30 33 42 34 30 28
8 11 10 5 6 8 11 15 12 8 9 19 27 28 16 6 12 14 20 24 12 23 39 46 50 45 41 37 28 29 25 26 25 22 15 9 6 3 9 14 18 19 20 19 19 23 27 25 26 30 35 40 30 23
7 6 6 9 8 8 11 10 11 10 6 7 10 7 6 6 15 29 6 16 23 37 42 46 49 48 43 38 42 39 34 28 21 15 13 4 5 9 12 17 23 28 30 27 26 28 29 27 27 31 33 33 29 22
8 5 3 2 8 7 7 8 13 8 9 6 5 6 5 4 9 5 6 4 20 14 17 27 30 29 31 40 40 36 29 23 20 15 8 7 11 15 22 26 24 23 27 30 32 31 29 26 27 27 29 37 26 22
4 6 8 12 12 10 7 8 6 5 6 5 6 7 5 10 5 4 3 11 33 39 30 14 18 29 37 42 39 35 26 19 14 9 7 12 18 24 24 22 19 20 23 29 32 34 31 29 29 29 29 33 28 26
10 19 13 15 12 12 11 9 8 11 11 12 13 19 15 5 4 9 5 15 23 35 39 35 32 34 32 27 27 20 11 3 5 9 12 17 19 19 20 25 32 30 29 33 32 33 35 35 32 26 28 23 24 26
8 7 8 18 23 21 10 9 8 5 9 10 9 10 8 9 10 6 10 30 24 26 24 24 25 25 22 22 18 15 14 15 14 10 8 7 8 10 17 26 34 38 40 37 35 29 32 34 33 32 33 32 27 28
11 13 5 34 17 18 7 4 8 5 3 11 15 6 12 5 4 10 13 22 21 14 10 15 13 11 9 8 7 7 10 12 13 10 9 15 15 16 19 24 25 25 29 31 26 26 30 34 33 39 42 43 45 34
11 19 25 11 10 10 7 5 5 9 16 12 3 5 6 3 6 7 10 13 20 17 4 5 6 1 8 7 3 3 8 14 16 16 16 19 18 17 23 23 24 25 25 27 24 25 29 31 33 38 38 38 39 26
9 25 10 7 3 7 5 38 36 47 46 37 26 31 35 16 6 6 6 6 7 10 10 8 5 2 5 3 1 4 10 14 16 16 21 26 32 34 34 31 27 25 25 28 29 32 34 30 25 20 25 24 18 17
16 20 11 9 9 40 51 47 43 47 45 47 37 34 33 21 12 12 12 10 7 5 4 3 1 1 2 3 5 5 5 10 13 15 19 23 27 30 29 28 29 28 27 28 30 35 35 25 18 20 22 23 19 17
14 14 4 8 15 30 31 27 31 26 31 29 20 7 17 12 7 5 13 11 6 5 4 2 5 3 2 7 12 15 16 16 19 19 23 25 27 30 32 30 30 29 25 26 28 31 26 20 13 14 16 20 22 21
16 32 28 9 8 10 28 26 10 12 9 6 3 5 6 8 6 6 12 20 15 12 9 1 3 2 5 4 9 11 10 12 15 19 22 24 25 27 29 30 29 29 24 20 21 21 18 13 11 15 20 23 26 23
Wind_Direction_500mb
334 329 323 318 310 307 299 278 265 246 247 238 229 233 239 223 215 204 201 209 205 208 170 183 167 150 145 165 143 150 85 338 57 139 156 223 215 233 280 272 317 303 308 261 219 230 245 325 45 58 346 275 304 305
324 313 314 307 306 300 298 283 272 250 238 244 230 222 229 226 215 209 202 202 200 220 227 217 223 220 221 216 146 163 182 173 167 96 306 54 275 319 254 261 303 255 212 245 221 278 201 206 271 268 250 254 270 284
323 317 312 306 302 298 285 282 277 255 247 237 227 218 214 214 216 208 208 209 198 242 272 260 244 246 246 235 220 173 200 186 180 166 155 185 219 127 214 250 243 251 248 251 296 264 322 40 298 283 269 261 282 276
319 319 311 311 307 301 298 279 275 253 238 233 225 215 205 207 209 214 196 187 194 160 129 266 235 238 237 229 228 228 224 193 191 181 147 167 187 182 234 234 197 232 14 274 286 282 280 275 273 276 274 279 276 281
311 319 317 318 312 305 296 281 266 250 230 220 217 213 201 198 199 214 199 187 183 197 209 293 312 253 225 224 226 227 226 231 228 149 131 229 208 170 236 229 255 256 254 243 256 268 266 273 276 277 278 272 275 282
312 319 322 322 318 316 303 289 269 250 248 199 203 202 200 187 194 164 198 210 199 214 288 341 269 247 220 219 222 224 223 227 219 185 209 228 211 192 246 252 262 269 260 258 254 266 269 268 276 273 264 267 272 274
318 326 328 332 330 324 316 301 266 223 196 188 191 190 185 171 168 168 156 171 193 190 227 293 310 250 198 208 216 214 221 218 217 218 221 227 218 208 240 265 278 281 274 271 267 270 272 271 267 277 268 268 273 277
321 330 342 346 346 348 341 344 160 171 176 173 173 173 165 167 172 183 95 164 178 172 192 201 271 325 188 179 168 179 184 198 214 230 232 196 185 198 252 253 273 277 286 286 280 276 263 268 272 270 272 270 264 267
322 336 349 353 8 13 36 86 126 141 148 154 157 156 152 173 161 178 169 152 174 196 177 191 187 245 183 153 126 129 155 22 236 236 240 169 204 225 239 282 282 295 295 297 307 308 285 270 268 266 272 262 257 261
325 340 358 1 28 43 88 119 130 134 140 150 146 120 102 131 143 164 151 268 204 199 209 216 210 255 169 150 55 89 133 226 245 238 191 216 247 252 260 270 288 298 305 306 303 311 320 296 294 282 277 273 270 272
297 340 358 25 67 90 115 130 140 144 144 127 119 95 141 140 136 166 166 210 176 245 212 225 208 184 220 125 197 211 193 216 242 256 202 241 260 218 295 278 294 310 331 346 335 331 320 311 301 301 290 285 293 290
285 325 335 69 111 128 145 149 151 147 140 133 121 126 134 163 186 172 189 177 210 235 192 178 218 202 210 195 136 183 216 176 245 159 248 255 248 238 259 303 321 321 337 337 330 324 328 315 310 311 298 291 298 303
280 259 167 263 178 149 152 158 159 154 135 130 111 142 160 147 75 176 194 218 214 203 192 189 216 172 176 198 210 197 209 225 48 222 234 230 228 197 304 325 332 335 336 333 336 334 325 326 320 323 327 326 325 324
278 257 255 208 209 213 209 180 174 166 157 175 151 144 191 212 228 199 186 184 209 199 182 179 150 179 177 186 218 239 220 80 296 226 235 244 246 319 335 334 333 332 331 336 336 348 359 5 5 1 358 357 351 351
280 274 259 256 225 204 233 211 180 181 166 165 168 217 214 229 243 254 224 234 207 175 163 115 162 176 210 268 227 141 7 248 214 230 225 195 296 329 333 337 338 335 332 337 342 351 2 3 359 356 358 3 5 2
268 268 291 265 247 229 206 229 223 208 190 191 223 222 220 150 279 237 229 240 233 212 197 181 224 205 200 196 177 212 219 222 246 229 106 262 306 316 335 335 337 341 345 347 354 355 353 348 358 358 354 359 13 15
257 264 242 270 249 244 231 201 207 220 212 200 228 221 220 248 233 241 236 241 239 173 210 208 206 211 151 212 208 195 211 212 196 213 254 272 277 317 327 337 340 339 337 340 333 338 340 352 354 348 346 347 358 9
278 280 231 262 264 236 231 227 202 203 208 205 192 223 217 225 235 232 232 224 187 195 177 223 310 203 207 209 246 231 191 197 198 190 172 265 36 14 339 354 9 14 9 6 357 356 355 347 338 333 334 337 349 358
298 276 256 242 250 225 219 238 256 285 230 190 224 234 225 234 246 256 258 245 228 209 193 205 224 221 213 215 196 191 202 198 195 180 144 334 302 303 316 335 332 343 349 345 350 346 342 338 336 331 328 327 322 326
301 289 270 249 227 290 268 256 232 271 257 253 221 226 228 233 248 253 259 238 219 204 214 216 210 216 210 235 245 234 213 194 179 166 160 205 183 331 353 347 354 348 345 344 344 343 345 348 345 338 335 324 311 312
303 324 314 226 249 232 233 241 249 236 264 264 268 232 233 236 240 241 237 230 200 217 226 227 236 240 245 234 223 251 206 194 195 199 166 149 140 124 68 348 326 323 325 333 334 330 334 340 346 350 344 325 310 304
300 306 313 250 246 217 248 230 233 268 250 253 262 263 267 306 284 243 217 189 214 221 227 238 244 246 234 229 218 199 196 180 167 160 158 162 171 284 317 318 318 311 301 304 313 316 317 322 322 327 338 344 328 314
300 285 234 215 211 223 259 221 224 227 231 253 228 223 240 213 218 212 207 220 229 241 240 241 244 246 245 235 191 168 173 173 171 172 173 210 306 325 331 329 328 323 319 314 303 300 303 308 307 311 320 329 336 317
288 270 292 256 223 261 248 239 213 249 230 243 251 239 275 261 160 220 240 93 350 309 253 233 227 214 188 170 177 177 178 182 180 185 221 268 291 307 327 332 329 323 319 321 318 310 303 302 300 303 314 329 325 320
257 4 22 4 358 336 302 330 300 306 346 280 249 249 274 186 219 248 63 12 8 14 54 131 188 193 173 167 156 152 157 172 188 211 266 297 307 315 315 315 328 334 326 322 328 335 330 320 296 295 295 313 311 301
58 18 23 2 330 332 346 304 340 348 2 348 10 336 304 280 183 55 57 359 27 28 35 51 70 77 85 116 115 113 105 89 324 322 308 309 319 321 322 323 321 326 322 316 318 320 326 333 326 311 301 309 298 294
33 349 20 18 320 283 290 311 346 26 15 13 348 325 323 5 15 57 58 27 18 21 29 42 50 58 65 63 55 37 9 348 342 339 312 307 333 330 317 316 314 313 312 317 319 318 314 314 315 312 305 298 286 286
355 321 1 328 306 298 262 341 357 44 28 354 332 317 321 10 38 6 2 3 1 345 359 3 13 29 31 26 15 356 341 341 342 329 275 266 285 299 302 309 307 300 300 304 308 315 318 317 313 311 306 299 296 276
309 294 330 300 297 292 23 50 339 316 338 329 244 268 272 357 350 324 330 1 1 339 330 332 342 13 170 162 178 336 341 340 345 350 343 338 340 338 344 336 330 325 313 311 311 314 320 319 316 313 308 299 294 288
279 318 288 280 213 277 247 328 303 307 307 288 253 264 279 273 289 304 317 312 304 327 4 1 9 76 151 184 64 357 351 351 351 351 350 342 338 339 338 335 332 330 328 320 318 320 322 320 317 321 333 333 323 304
277 286 273 261 288 298 303 310 314 308 298 283 280 243 245 196 135 80 59 38 12 340 278 270 229 92 58 47 28 9 3 354 348 338 333 330 331 337 337 336 336 333 333 334 331 329 325 319 321 321 327 333 320 307
271 278 281 292 288 301 312 315 308 276 278 279 273 195 159 144 115 103 35 25 20 34 35 204 197 196 16 13 355 344 336 332 325 333 341 343 344 349 347 342 341 340 334 337 338 342 332 312 300 312 333 336 332 318
276 285 283 260 296 309 309 323 287 299 288 290 360 102 105 102 111 133 38 15 19 17 15 88 163 229 232 298 341 341 334 328 331 333 333 332 336 340 345 351 352 354 350 342 341 342 345 354 343 332 333 333 335 325
Wind_Speed_850mb
18 18 21 23 23 21 23 25 23 28 27 31 33 26 21 17 19 25 27 21 15 4 4 9 9 10 10 8 7 7 8 3 5 4 5 6 6 5 4 7 6 6 6 3 11 12 15 7 11 4 4 7 18 21
22 21 25 26 28 27 25 21 24 31 37 31 36 38 30 22 22 22 25 23 18 10 4 12 16 17 15 8 10 10 5 8 13 6 0 2 2 3 4 6 3 6 8 5 9 7 5 4 13 22 18 26 32 36
25 26 30 30 31 31 31 31 35 38 41 42 38 37 38 29 22 19 22 28 20 11 20 29 23 22 24 26 23 10 7 9 11 8 7 4 7 6 4 9 6 8 6 10 15 8 6 8 14 28 31 36 44 44
27 32 32 36 38 41 42 41 44 44 48 46 46 44 41 34 29 22 21 22 24 7 2 10 13 16 27 30 32 35 24 11 9 12 6 5 5 12 6 7 6 15 3 18 26 33 38 56 59 63 49 50 55 48
27 33 37 41 45 50 46 35 38 41 47 51 50 46 46 44 31 22 22 23 21 13 8 12 16 17 24 24 24 24 33 38 20 3 3 5 4 2 7 2 24 34 24 15 26 54 44 56 78 64 60 63 70 59
27 34 40 47 48 40 42 36 34 42 44 54 50 49 49 45 36 24 8 27 30 24 4 5 7 12 15 21 28 30 28 27 23 11 7 12 16 14 7 10 39 38 45 63 42 80 75 83 97 77 69 73 78 74
27 36 43 44 44 36 31 26 22 27 37 52 50 48 47 46 46 18 5 5 37 22 6 6 7 4 5 9 19 23 31 23 26 15 13 16 19 20 6 30 67 72 63 68 68 72 67 81 60 85 60 61 62 64
24 34 41 38 32 28 18 14 7 29 35 54 50 47 51 46 43 20 8 9 30 18 6 0 7 8 7 7 9 15 14 21 19 13 7 5 5 14 11 34 63 75 67 63 68 65 78 83 76 81 69 67 68 75
21 29 33 32 24 22 15 15 28 38 50 53 47 48 49 35 18 26 11 24 40 15 11 6 4 6 3 4 5 5 3 1 4 4 5 12 6 12 21 20 45 51 47 61 68 56 48 59 60 58 61 59 59 65
16 23 26 24 15 17 16 26 41 51 54 61 65 19 8 16 18 22 9 1 17 14 9 5 9 5 5 5 3 4 3 5 4 9 7 6 12 38 40 51 59 52 47 47 45 40 35 34 42 47 50 49 51 55
11 15 21 16 15 18 25 33 44 54 67 43 10 8 22 32 18 10 7 7 6 3 11 11 27 5 10 5 6 11 6 4 5 7 6 5 6 5 3 32 34 31 29 23 28 41 32 29 35 36 31 28 45 46
12 7 8 10 22 22 23 30 40 54 20 12 22 34 31 11 6 4 5 3 6 7 11 8 13 20 11 14 5 8 6 7 10 8 4 6 7 22 21 20 19 25 31 29 23 23 25 24 29 31 35 41 42 41
13 13 3 2 14 25 47 50 48 24 36 35 9 10 8 6 4 11 11 6 5 8 16 16 5 11 11 16 5 6 9 10 1 2 7 8 6 6 10 19 27 27 32 34 30 25 24 24 25 31 32 31 30 31
14 15 18 15 10 7 10 35 41 35 29 6 9 7 8 6 9 9 7 8 15 10 22 18 8 5 10 8 5 6 5 3 4 5 10 5 1 11 17 21 25 35 39 33 25 23 22 24 26 27 28 31 34 33
16 16 18 21 21 22 16 20 32 44 8 8 7 8 11 13 15 10 23 12 11 14 16 5 0 6 3 3 5 1 4 8 10 8 5 6 5 11 19 24 26 31 30 25 18 18 18 20 23 24 24 26 30 35
13 16 18 18 25 28 29 23 21 21 8 8 11 6 10 2 8 13 20 33 26 24 18 9 5 7 9 6 8 13 6 11 8 5 3 4 10 12 18 21 21 22 18 14 16 18 18 17 18 24 30 22 23 29
20 23 14 16 18 25 28 41 28 13 12 12 11 31 22 10 19 19 33 39 24 17 5 5 9 11 7 6 8 8 9 7 7 7 9 11 12 12 19 17 15 15 15 15 18 15 17 16 15 19 21 25 24 24
23 18 19 14 11 18 26 18 16 19 18 16 9 29 33 34 24 19 19 22 24 18 10 7 4 8 7 7 7 5 9 11 14 12 5 3 2 11 12 10 12 17 18 16 17 19 20 22 22 23 25 28 26 23
15 16 18 26 20 15 8 8 8 6 13 8 24 25 22 19 33 37 33 31 36 20 12 8 8 7 7 6 6 15 19 20 17 12 5 2 4 10 15 8 11 13 15 18 20 23 25 25 26 25 25 27 29 26
19 17 20 18 19 4 5 6 7 9 5 11 21 30 38 35 48 49 50 44 42 18 12 9 9 11 12 18 22 22 28 29 22 18 7 6 2 1 3 6 9 12 12 16 20 22 25 30 35 36 29 28 28 31
14 8 8 14 21 20 9 6 9 11 10 10 18 21 14 32 41 40 31 38 29 14 8 32 38 34 29 20 15 20 16 17 18 16 21 18 12 5 2 3 6 9 13 17 22 22 24 26 30 33 42 34 30 28
8 11 10 5 6 8 11 15 12 8 9 19 27 28 16 6 12 14 20 24 12 23 39 46 50 45 41 37 28 29 25 26 25 22 15 9 6 3 9 14 18 19 20 19 19 23 27 25 26 30 35 40 30 23
7 6 6 9 8 8 11 10 11 10 6 7 10 7 6 6 15 29 6 16 23 37 42 46 49 48 43 38 42 39 34 28 21 15 13 4 5 9 12 17 23 28 30 27 26 28 29 27 27 31 33 33 29 22
8 5 3 2 8 7 7 8 13 8 9 6 5 6 5 4 9 5 6 4 20 14 17 27 30 29 31 40 40 36 29 23 20 15 8 7 11 15 22 26 24 23 27 30 32 31 29 26 27 27 29 37 26 22
4 6 8 12 12 10 7 8 6 5 6 5 6 7 5 10 5 4 3 11 33 39 30 14 18 29 37 42 39 35 26 19 14 9 7 12 18 24 24 22 19 20 23 29 32 34 31 29 29 29 29 33 28 26
10 19 13 15 12 12 11 9 8 11 11 12 13 19 15 5 4 9 5 15 23 35 39 35 32 34 32 27 27 20 11 3 5 9 12 17 19 19 20 25 32 30 29 33 32 33 35 35 32 26 28 23 24 26
8 7 8 18 23 21 10 9 8 5 9 10 9 10 8 9 10 6 10 30 24 26 24 24 25 25 22 22 18 15 14 15 14 10 8 7 8 10 17 26 34 38 40 37 35 29 32 34 33 32 33 32 27 28
11 13 5 34 17 18 7 4 8 5 3 11 15 6 12 5 4 10 13 22 21 14 10 15 13 11 9 8 7 7 10 12 13 10 9 15 15 16 19 24 25 25 29 31 26 26 30 34 33 39 42 43 45 34
11 19 25 11 10 10 7 5 5 9 16 12 3 5 6 3 6 7 10 13 20 17 4 5 6 1 8 7 3 3 8 14 16 16 16 19 18 17 23 23 24 25 25 27 24 25 29 31 33 38 38 38 39 26
9 25 10 7 3 7 5 38 36 47 46 37 26 31 35 16 6 6 6 6 7 10 10 8 5 2 5 3 1 4 10 14 16 16 21 26 32 34 34 31 27 25 25 28 29 32 34 30 25 20 25 24 18 17
16 20 11 9 9 40 51 47 43 47 45 47 37 34 33 21 12 12 12 10 7 5 4 3 1 1 2 3 5 5 5 10 13 15 19 23 27 30 29 28 29 28 27 28 30 35 35 25 18 20 22 23 19 17
14 14 4 8 15 30 31 27 31 26 31 29 20 7 17 12 7 5 13 11 6 5 4 2 5 3 2 7 12 15 16 16 19 19 23 25 27 30 32 30 30 29 25 26 28 31 26 20 13 14 16 20 22 21
16 32 28 9 8 10 28 26 10 12 9 6 3 5 6 8 6 6 12 20 15 12 9 1 3 2 5 4 9 11 10 12 15 19 22 24 25 27 29 30 29 29 24 20 21 21 18 13 11 15 20 23 26 23
Wind_Direction_850mb
334 329 323 318 310 307 299 278 265 246 247 238 229 233 239 223 215 204 201 209 205 208 170 183 167 150 145 165 143 150 85 338 57 139 156 223 215 233 280 272 317 303 308 261 219 230 245 325 45 58 346 275 304 305
324 313 314 307 306 300 298 283 272 250 238 244 230 222 229 226 215 209 202 202 200 220 227 217 223 220 221 216 146 163 182 173 167 96 306 54 275 319 254 261 303 255 212 245 221 278 201 206 271 268 250 254 270 284
323 317 312 306 302 298 285 282 277 255 247 237 227 218 214 214 216 208 208 209 198 242 272 260 244 246 246 235 220 173 200 186 180 166 155 185 219 127 214 250 243 251 248 251 296 264 322 40 298 283 269 261 282 276
319 319 311 311 307 301 298 279 275 253 238 233 225 215 205 207 209 214 196 187 194 160 129 266 235 238 237 229 228 228 224 193 191 181 147 167 187 182 234 234 197 232 14 274 286 282 280 275 273 276 274 279 276 281
311 319 317 318 312 305 296 281 266 250 230 220 217 213 201 198 199 214 199 187 183 197 209 293 312 253 225 224 226 227 226 231 228 149 131 229 208 170 236 229 255 256 254 243 256 268 266 273 276 277 278 272 275 282
312 319 322 322 318 316 303 289 269 250 248 199 203 202 200 187 194 164 198 210 199 214 288 341 269 247 220 219 222 224 223 227 219 185 209 228 211 192 246 252 262 269 260 258 254 266 269 268 276 273 264 267 272 274
318 326 328 332 330 324 316 301 266 223 196 188 191 190 185 171 168 168 156 171 193 190 227 293 310 250 198 208 216 214 221 218 217 218 221 227 218 208 240 265 278 281 274 271 267 270 272 271 267 277 268 268 273 277
321 330 342 346 346 348 341 344 160 171 176 173 173 173 165 167 172 183 95 164 178 172 192 201 271 325 188 179 168 179 184 198 214 230 232 196 185 198 252 253 273 277 286 286 280 276 263 268 272 270 272 270 264 267
322 336 349 353 8 13 36 86 126 141 148 154 157 156 152 173 161 178 169 152 174 196 177 191 187 245 183 153 126 129 155 22 236 236 240 169 204 225 239 282 282 295 295 297 307 308 285 270 268 266 272 262 257 261
325 340 358 1 28 43 88 119 130 134 140 150 146 120 102 131 143 164 151 268 204 199 209 216 210 255 169 150 55 89 133 226 245 238 191 216 247 252 260 270 288 298 305 306 303 311 320 296 294 282 277 273 270 272
297 340 358 25 67 90 115 130 140 144 144 127 119 95 141 140 136 166 166 210 176 245 212 225 208 184 220 125 197 211 193 216 242 256 202 241 260 218 295 278 294 310 331 346 335 331 320 311 301 301 290 285 293 290
285 325 335 69 111 128 145 149 151 147 140 133 121 126 134 163 186 172 189 177 210 235 192 178 218 202 210 195 136 183 216 176 245 159 248 255 248 238 259 303 321 321 337 337 330 324 328 315 310 311 298 291 298 303
280 259 167 263 178 149 152 158 159 154 135 130 111 142 160 147 75 176 194 218 214 203 192 189 216 172 176 198 210 197 209 225 48 222 234 230 228 197 304 325 332 335 336 333 336 334 325 326 320 323 327 326 325 324
278 257 255 208 209 213 209 180 174 166 157 175 151 144 191 212 228 199 186 184 209 199 182 179 150 179 177 186 218 239 220 80 296 226 235 244 246 319 335 334 333 332 331 336 336 348 359 5 5 1 358 357 351 351
280 274 259 256 225 204 233 211 180 181 166 165 168 217 214 229 243 254 224 234 207 175 163 115 162 176 210 268 227 141 7 248 214 230 225 195 296 329 333 337 338 335 332 337 342 351 2 3 359 356 358 3 5 2
268 268 291 265 247 229 206 229 223 208 190 191 223 222 220 150 279 237 229 240 233 212 197 181 224 205 200 196 177 212 219 222 246 229 106 262 306 316 335 335 337 341 345 347 354 355 353 348 358 358 354 359 13 15
257 264 242 270 249 244 231 201 207 220 212 200 228 221 220 248 233 241 236 241 239 173 210 208 206 211 151 212 208 195 211 212 196 213 254 272 277 317 327 337 340 339 337 340 333 338 340 352 354 348 346 347 358 9
278 280 231 262 264 236 231 227 202 203 208 205 192 223 217 225 235 232 232 224 187 195 177 223 310 203 207 209 246 231 191 197 198 190 172 265 36 14 339 354 9 14 9 6 357 356 355 347 338 333 334 337 349 358
298 276 256 242 250 225 219 238 256 285 230 190 224 234 225 234 246 256 258 245 228 209 193 205 224 221 213 215 196 191 202 198 195 180 144 334 302 303 316 335 332 343 349 345 350 346 342 338 336 331 328 327 322 326
301 289 270 249 227 290 268 256 232 271 257 253 221 226 228 233 248 253 259 238 219 204 214 216 210 216 210 235 245 234 213 194 179 166 160 205 183 331 353 347 354 348 345 344 344 343 345 348 345 338 335 324 311 312
303 324 314 226 249 232 233 241 249 236 264 264 268 232 233 236 240 241 237 230 200 217 226 227 236 240 245 234 223 251 206 194 195 199 166 149 140 124 68 348 326 323 325 333 334 330 334 340 346 350 344 325 310 304
300 306 313 250 246 217 248 230 233 268 250 253 262 263 267 306 284 243 217 189 214 221 227 238 244 246 234 229 218 199 196 180 167 160 158 162 171 284 317 318 318 311 301 304 313 316 317 322 322 327 338 344 328 314
300 285 234 215 211 223 259 221 224 227 231 253 228 223 240 213 218 212 207 220 229 241 240 241 244 246 245 235 191 168 173 173 171 172 173 210 306 325 331 329 328 323 319 314 303 300 303 308 307 311 320 329 336 317
288 270 292 256 223 261 248 239 213 249 230 243 251 239 275 261 160 220 240 93 350 309 253 233 227 214 188 170 177 177 178 182 180 185 221 268 291 307 327 332 329 323 319 321 318 310 303 302 300 303 314 329 325 320
257 4 22 4 358 336 302 330 300 306 346 280 249 249 274 186 219 248 63 12 8 14 54 131 188 193 173 167 156 152 157 172 188 211 266 297 307 315 315 315 328 334 326 322 328 335 330 320 296 295 295 313 311 301
58 18 23 2 330 332 346 304 340 348 2 348 10 336 304 280 183 55 57 359 27 28 35 51 70 77 85 116 115 113 105 89 324 322 308 309 319 321 322 323 321 326 322 316 318 320 326 333 326 311 301 309 298 294
33 349 20 18 320 283 290 311 346 26 15 13 348 325 323 5 15 57 58 27 18 21 29 42 50 58 65 63 55 37 9 348 342 339 312 307 333 330 317 316 314 313 312 317 319 318 314 314 315 312 305 298 286 286
355 321 1 328 306 298 262 341 357 44 28 354 332 317 321 10 38 6 2 3 1 345 359 3 13 29 31 26 15 356 341 341 342 329 275 266 285 299 302 309 307 300 300 304 308 315 318 317 313 311 306 299 296 276
309 294 330 300 297 292 23 50 339 316 338 329 244 268 272 357 350 324 330 1 1 339 330 332 342 13 170 162 178 336 341 340 345 350 343 338 340 338 344 336 330 325 313 311 311 314 320 319 316 313 308 299 294 288
279 318 288 280 213 277 247 328 303 307 307 288 253 264 279 273 289 304 317 312 304 327 4 1 9 76 151 184 64 357 351 351 351 351 350 342 338 339 338 335 332 330 328 320 318 320 322 320 317 321 333 333 323 304
277 286 273 261 288 298 303 310 314 308 298 283 280 243 245 196 135 80 59 38 12 340 278 270 229 92 58 47 28 9 3 354 348 338 333 330 331 337 337 336 336 333 333 334 331 329 325 319 321 321 327 333 320 307
271 278 281 292 288 301 312 315 308 276 278 279 273 195 159 144 115 103 35 25 20 34 35 204 197 196 16 13 355 344 336 332 325 333 341 343 344 349 347 342 341 340 334 337 338 342 332 312 300 312 333 336 332 318
276 285 283 260 296 309 309 323 287 299 288 290 360 102 105 102 111 133 38 15 19 17 15 88 163 229 232 298 341 341 334 328 331 333 333 332 336 340 345 351 352 354 350 342 341 342 345 354 343 332 333 333 335 325